Theta_e
346 346 347 347 347 347 347 347 347 348 348 348 349 349 349 349 349 351 353 354 356 352 346 347 348 345 346 345 345 344 343 343 343 341 345 348 351 354 354 353 352 351 351 352 350 349 350 351 349 350 349 348 348 346 346 347 348 349 349 349 349 349 351
345 344 346 346 346 347 347 346 347 347 347 348 348 349 349 349 349 351 352 354 356 354 348 346 347 345 346 346 345 346 345 345 345 345 344 343 346 351 352 352 352 352 350 351 351 349 349 350 350 350 349 348 348 347 346 346 346 346 349 350 350 349 350
345 344 344 345 346 346 347 347 347 347 347 348 348 349 348 348 349 349 351 353 355 354 349 345 345 345 345 347 346 346 346 346 346 347 346 344 346 350 353 352 352 352 351 350 350 350 349 350 350 349 349 349 347 347 347 347 347 346 348 350 349 348 348
345 343 342 345 347 346 347 347 346 347 347 348 348 348 348 349 350 350 352 354 354 354 352 346 345 346 347 348 347 347 348 347 346 347 347 349 350 351 352 352 351 351 351 350 350 350 350 350 350 349 349 348 347 347 346 347 347 348 349 349 347 346 347
346 345 342 345 347 346 347 347 347 347 346 346 348 348 348 350 351 352 354 356 354 353 352 349 347 347 349 348 348 349 350 348 347 346 347 348 350 350 350 352 352 351 351 351 350 350 350 349 348 348 349 348 348 346 346 347 348 349 350 349 346 347 348
344 344 344 345 347 347 347 347 348 347 346 346 348 349 349 350 351 354 356 356 355 353 351 350 348 349 349 350 350 351 351 349 346 346 347 347 348 349 352 352 352 351 351 351 351 350 350 348 348 348 348 347 348 347 345 346 348 349 350 348 345 345 347
345 345 343 345 346 345 345 346 348 348 347 348 347 348 350 350 351 354 357 356 356 354 351 350 351 350 351 350 351 352 350 347 346 347 347 348 348 349 351 352 351 350 351 350 350 350 349 348 348 348 348 347 348 346 345 345 347 348 349 349 347 346 347
347 347 346 345 346 346 345 346 349 349 349 350 348 346 349 349 349 353 356 356 356 355 353 351 352 353 353 353 353 353 351 348 346 347 349 351 351 349 350 351 351 350 351 351 351 350 350 349 349 349 349 349 348 347 346 345 344 346 348 349 349 348 348
349 350 348 347 347 347 345 345 348 349 349 350 349 348 349 349 350 352 356 357 357 357 355 353 354 356 355 356 355 351 349 350 350 350 351 353 353 350 350 352 352 350 350 350 351 350 349 350 351 350 349 349 348 347 346 345 344 345 346 347 349 349 349
351 350 348 346 345 347 345 345 347 347 348 348 348 349 349 350 354 354 355 357 355 355 356 354 356 357 355 356 357 352 349 352 353 353 354 353 352 352 352 353 352 350 350 352 352 351 350 351 351 351 350 349 348 346 346 345 345 346 347 347 347 348 349
351 349 349 345 346 348 345 346 347 347 348 347 347 351 351 351 354 354 353 354 354 356 359 358 359 361 359 359 360 355 350 351 352 353 354 353 353 353 353 352 351 351 352 353 353 352 352 351 350 349 349 350 350 348 346 345 345 346 348 348 348 348 349
350 349 351 347 347 349 346 347 349 347 348 347 348 352 354 352 353 354 355 357 357 359 362 361 361 362 361 360 360 356 351 351 351 352 353 353 353 354 352 352 352 353 353 353 352 352 352 350 350 350 350 351 352 351 350 347 345 345 347 348 348 349 349
349 349 353 353 350 349 349 354 354 351 352 352 353 353 352 352 352 355 358 361 361 362 363 363 361 360 360 358 357 354 352 352 352 350 349 350 351 352 353 352 352 351 352 352 352 350 349 348 349 350 350 351 352 352 352 350 347 345 346 346 346 348 349
349 348 355 362 359 354 355 361 362 361 359 358 357 355 355 355 357 358 361 362 363 363 362 361 359 358 356 353 351 350 349 351 352 351 349 349 350 351 351 351 350 349 350 351 350 347 346 345 346 346 347 348 348 349 350 350 348 346 346 345 345 346 348
349 349 353 361 366 365 364 366 366 366 364 360 359 360 360 361 362 362 363 363 363 360 358 357 356 355 351 348 349 350 348 349 352 351 350 351 351 351 351 350 349 348 349 350 348 345 344 344 345 346 346 346 347 348 349 349 347 346 346 347 346 345 346
351 352 352 354 362 369 368 368 369 366 365 362 361 362 362 362 363 362 361 360 359 358 356 353 352 352 351 350 351 350 348 349 351 350 350 351 351 350 349 349 349 349 348 347 346 344 343 345 347 348 347 346 347 347 348 348 348 348 348 348 347 347 347
352 351 350 351 359 369 368 368 369 366 365 364 361 361 361 360 361 360 360 360 358 356 354 352 352 353 353 352 351 350 349 348 348 347 348 349 348 347 347 348 348 347 346 346 345 344 344 346 347 348 346 346 346 347 348 349 348 349 349 349 349 349 348
351 349 351 352 359 368 368 366 367 365 364 364 361 361 360 359 360 359 358 358 356 355 353 353 353 352 352 352 351 350 350 348 348 347 347 347 346 345 346 346 346 345 345 346 346 347 347 347 348 348 347 346 346 346 347 347 347 348 349 350 349 349 348
351 349 352 353 357 366 366 365 366 364 362 361 360 359 359 358 358 358 356 355 355 354 354 353 352 351 351 351 350 350 349 348 348 347 347 346 345 346 346 345 345 346 346 347 348 348 348 349 349 350 348 347 346 345 344 345 347 349 350 350 350 350 349
350 350 352 352 355 364 367 364 364 363 361 360 359 358 358 358 358 358 356 354 354 352 352 352 350 349 349 349 349 349 348 347 347 347 348 348 346 345 345 345 346 347 347 347 348 349 349 349 350 350 349 348 348 346 343 342 345 348 349 350 350 350 349
347 350 352 351 352 360 366 364 362 362 360 359 358 358 358 359 359 356 354 353 351 350 350 351 349 348 347 348 347 347 346 347 349 349 349 349 348 347 347 347 348 348 348 349 349 349 350 350 350 350 349 349 348 346 345 343 344 348 350 350 351 350 349
346 349 348 347 350 357 364 364 362 361 359 357 357 357 358 359 357 355 354 352 350 348 348 350 349 347 346 346 345 345 346 348 349 348 348 349 348 349 349 349 349 349 350 350 350 351 350 350 350 349 348 348 347 346 346 346 345 348 349 349 349 349 349
348 348 347 346 350 356 361 362 361 360 358 358 357 357 358 358 357 355 354 352 350 348 348 347 346 345 344 344 344 345 345 345 346 347 348 348 349 349 349 350 350 349 350 350 350 350 349 349 349 348 348 347 347 346 347 347 347 347 347 347 348 348 348
347 350 351 351 350 354 357 359 360 359 358 358 358 357 357 357 357 356 354 351 350 349 347 347 345 344 344 345 345 346 345 345 346 347 349 349 350 350 350 350 349 349 349 349 349 350 349 349 349 348 347 347 346 347 348 348 349 349 348 348 348 348 348
345 348 350 351 351 351 355 358 358 358 358 358 357 357 357 357 357 356 353 350 348 347 347 347 346 345 345 345 346 347 346 346 348 348 349 349 350 350 350 349 349 349 349 349 349 350 350 350 349 347 346 345 346 347 348 348 348 348 348 349 349 348 347
344 345 348 350 350 351 355 358 358 358 359 357 355 356 357 357 356 355 353 349 346 345 346 346 346 346 345 345 346 346 346 346 347 346 348 349 350 350 349 349 349 349 349 349 349 350 350 350 349 347 345 345 346 347 348 348 347 347 347 347 346 345 343
343 344 345 348 350 352 356 358 357 358 358 354 354 356 357 355 354 354 354 351 346 345 346 346 346 345 345 345 345 346 347 346 346 348 349 349 349 349 348 348 349 349 349 349 349 349 349 349 349 348 346 346 346 345 344 344 343 341 341 340 338 336 336
346 345 344 348 352 354 355 356 357 358 357 354 354 356 355 353 352 354 355 353 349 346 344 343 343 343 343 343 343 344 345 345 347 349 349 347 347 346 346 347 347 347 347 347 345 346 346 346 345 345 346 345 344 342 342 342 340 339 338 335 332 331 333
348 347 346 350 353 354 354 356 358 358 357 356 357 357 353 351 352 354 355 354 351 345 341 340 339 339 340 341 342 343 344 344 345 346 346 346 345 344 345 345 343 341 341 341 340 341 342 342 342 344 345 345 344 344 344 343 342 340 340 337 333 330 332
348 349 348 350 353 354 354 355 357 357 357 357 357 356 353 351 353 355 355 354 351 345 341 340 339 340 341 341 341 342 342 343 345 345 347 347 344 342 344 343 339 337 337 337 338 340 341 342 343 344 345 345 345 345 345 344 343 343 342 340 338 335 331
351 350 349 350 352 354 355 355 356 356 356 356 356 356 355 352 352 354 353 351 347 343 342 342 342 343 343 342 342 343 344 345 346 347 347 346 343 341 343 342 339 338 338 338 339 341 342 343 344 344 343 344 344 344 344 344 344 343 342 342 342 338 333
349 349 350 351 352 355 356 356 356 356 356 355 355 356 356 352 349 348 347 344 343 342 344 344 344 344 344 344 345 346 346 345 346 346 346 345 345 344 344 343 342 341 342 343 343 344 345 345 345 344 344 344 344 344 343 343 343 343 342 343 343 341 338
346 348 351 353 355 355 355 356 358 357 356 355 355 356 356 352 346 342 341 343 344 343 342 344 345 345 347 347 346 346 345 344 344 344 343 343 344 345 343 344 343 343 345 346 346 345 346 346 345 345 344 343 343 343 343 342 343 342 342 342 343 342 340
346 349 354 357 356 354 354 356 357 355 355 354 354 355 355 353 349 345 346 350 351 345 342 345 348 349 348 346 344 344 344 343 343 343 342 342 343 344 343 344 344 345 347 348 346 344 344 343 343 343 342 342 342 342 342 342 342 342 342 342 341 341 340
347 351 356 358 356 354 354 355 354 354 355 355 353 352 352 352 351 350 351 352 351 347 346 347 349 349 347 344 343 344 343 342 342 342 342 342 342 342 342 343 343 344 345 344 342 340 339 340 340 340 340 341 341 340 340 340 340 340 340 339 338 337 337
349 354 357 357 354 354 354 354 353 353 354 353 352 352 352 351 351 352 352 352 351 350 349 349 347 345 343 342 342 342 341 341 341 342 342 342 343 344 343 342 341 339 339 339 337 336 335 335 335 336 336 336 336 336 336 335 335 335 335 335 335 335 337
353 355 355 353 353 354 354 353 353 354 354 353 353 353 352 352 352 352 352 352 351 350 350 349 345 343 343 343 344 344 343 342 342 343 343 342 344 346 345 343 342 340 339 338 338 337 336 335 334 333 333 333 333 333 334 333 333 333 333 334 334 335 336
351 351 351 352 353 353 353 355 355 354 354 354 353 352 352 353 352 352 351 351 350 349 349 349 347 345 346 345 344 342 343 343 343 344 344 343 343 344 344 344 344 344 343 342 341 340 339 338 337 337 336 335 334 334 334 334 334 333 334 334 334 335 336
Wind_Speed
22 23 26 27 28 28 29 29 28 27 25 24 23 23 24 26 25 26 28 29 29 25 23 25 24 21 19 19 18 17 17 18 19 20 21 21 20 17 17 18 17 18 17 17 19 19 17 17 16 16 17 18 17 16 17 19 19 20 20 21 20 18 17
21 21 23 27 29 31 32 32 30 29 26 24 25 25 23 24 27 29 28 29 29 25 23 24 24 22 21 20 19 19 19 18 18 19 20 20 20 18 17 17 17 18 18 17 17 18 18 18 18 17 16 16 16 15 16 18 20 21 22 22 22 21 20
19 19 21 24 28 28 30 32 29 27 27 26 26 26 23 24 28 28 27 29 30 26 23 24 23 23 22 21 21 21 21 21 20 19 18 19 20 19 17 17 17 18 19 18 18 18 18 19 19 19 18 16 16 16 19 19 19 20 22 23 23 22 21
19 17 18 19 24 26 27 29 27 26 27 26 26 28 27 25 24 25 27 31 31 27 24 24 24 23 23 22 23 23 23 23 22 20 18 18 19 20 19 18 18 18 18 18 18 17 17 20 21 21 20 19 17 17 18 19 19 19 22 23 23 22 20
19 19 19 16 20 23 24 26 27 27 26 24 24 27 29 26 22 23 29 29 28 26 24 23 24 24 23 23 23 23 24 24 23 22 20 19 19 19 19 19 19 20 18 17 18 18 19 20 19 18 20 20 19 17 17 18 17 18 20 22 22 22 21
17 18 18 15 17 20 20 23 26 26 25 25 24 22 24 28 25 24 28 27 26 26 23 22 24 26 25 24 24 24 25 25 24 23 21 21 20 19 19 19 21 22 20 18 18 18 19 20 18 18 19 18 18 17 17 17 17 17 19 19 20 20 20
17 16 17 16 18 20 19 20 24 26 24 25 27 24 24 28 28 26 27 27 26 26 24 23 24 25 24 25 25 26 28 27 25 24 23 22 21 22 21 20 20 20 18 17 18 17 18 18 19 20 18 16 17 17 16 17 17 17 18 18 18 18 18
13 12 15 14 17 19 17 18 20 24 24 24 27 29 27 27 27 26 25 26 26 26 25 23 23 24 25 26 26 27 28 27 26 26 24 21 21 23 22 18 18 18 17 18 19 19 18 17 19 20 19 18 19 17 15 17 18 18 18 18 18 18 19
10 10 9 13 17 17 17 18 18 20 23 23 25 27 26 25 26 27 26 25 26 27 26 24 23 26 27 27 27 26 25 25 25 25 24 22 21 22 22 20 19 18 17 18 19 20 20 18 18 19 20 22 21 19 18 18 18 19 19 19 19 19 19
11 9 10 13 16 17 17 20 20 20 21 21 23 25 26 25 26 28 28 26 26 27 26 25 26 27 28 28 27 25 22 22 22 21 20 20 20 21 22 22 21 20 19 18 18 19 19 19 18 17 17 20 22 23 23 21 19 19 18 19 20 21 20
14 8 16 18 16 19 22 21 21 23 23 23 22 22 24 27 27 27 27 27 27 26 25 26 27 28 29 29 28 25 21 19 20 20 18 18 19 19 20 22 23 22 20 18 17 17 17 17 16 15 15 16 18 21 23 23 22 21 19 17 17 19 21
12 11 19 19 17 22 26 20 20 25 25 24 23 23 23 24 25 25 26 28 28 26 25 27 28 30 30 28 26 22 18 16 18 18 16 17 18 19 20 22 23 23 21 19 18 18 18 17 15 13 14 15 16 18 20 21 23 23 22 20 19 19 22
7 16 13 18 17 21 22 16 18 24 25 25 25 25 24 22 24 26 27 27 27 25 25 25 24 24 22 18 17 17 14 13 15 14 14 17 19 20 20 21 21 20 19 19 19 19 18 18 17 16 17 16 16 17 18 19 21 22 24 24 24 24 23
5 18 11 16 16 18 19 16 19 22 22 23 22 22 22 22 24 25 24 22 22 20 19 18 15 13 12 12 13 15 16 17 17 15 13 15 19 20 19 20 20 18 17 18 19 18 17 16 16 17 18 18 17 17 16 17 19 20 22 23 24 25 25
9 13 9 11 15 17 17 16 18 18 19 21 20 21 22 21 21 21 19 17 16 13 10 9 10 10 11 13 15 17 19 19 18 15 12 11 15 17 16 17 17 16 16 17 17 15 14 14 14 15 17 18 17 17 16 17 18 18 20 22 22 23 24
11 9 7 7 11 17 16 16 18 17 18 20 19 20 19 17 17 17 16 15 14 11 8 8 10 11 11 13 16 18 18 17 15 14 13 12 13 13 13 14 15 16 15 15 13 13 13 13 12 13 14 14 15 16 16 17 17 17 18 20 20 21 22
8 10 8 9 9 15 16 16 18 17 18 19 18 18 17 16 16 14 13 14 14 12 11 10 9 9 10 12 15 16 16 15 13 13 14 14 14 12 12 13 13 13 12 11 11 13 13 12 11 11 12 12 13 13 14 15 14 15 17 17 18 19 20
8 11 9 7 8 14 16 15 17 18 18 18 17 16 16 15 15 14 12 12 11 10 10 9 9 9 10 11 12 12 11 12 12 12 13 14 14 12 12 12 12 12 11 11 12 12 11 11 10 10 10 10 11 11 12 14 14 15 16 16 17 18 18
7 10 10 5 7 11 16 15 17 18 17 18 17 15 15 15 15 14 12 10 10 11 11 10 10 10 9 9 10 9 9 10 10 11 12 12 12 12 12 12 12 12 11 11 11 10 10 10 9 9 9 10 11 11 11 14 15 15 15 16 17 18 18
6 9 12 6 8 10 16 15 17 18 17 17 16 14 15 15 14 13 12 12 12 11 11 10 9 8 9 9 9 8 8 9 9 10 10 10 11 12 12 12 12 11 10 10 10 10 10 9 9 9 10 10 11 10 11 13 14 14 14 14 13 14 15
6 9 13 6 9 6 15 16 16 18 18 17 16 15 17 16 14 13 13 12 11 11 10 10 9 9 9 8 8 9 9 8 8 8 8 8 9 10 10 10 9 9 9 9 10 10 9 10 10 10 10 10 10 11 11 12 13 13 14 14 13 13 14
8 10 13 7 7 5 11 16 17 18 18 17 15 15 17 16 14 14 13 11 11 12 11 10 9 9 9 8 8 10 10 10 9 8 8 7 8 8 7 7 7 7 8 8 9 9 9 9 9 9 9 9 10 11 12 12 12 13 14 15 15 15 15
13 12 11 11 7 4 8 13 15 17 18 17 16 15 16 16 14 14 13 11 11 11 11 11 10 8 7 7 8 8 8 8 8 7 7 6 6 6 6 6 6 7 7 7 7 7 6 7 7 8 9 9 10 11 11 11 12 14 15 15 15 15 15
15 13 13 14 12 7 8 11 13 15 16 17 17 16 16 16 15 14 13 11 11 10 10 10 9 8 6 5 5 6 5 5 5 4 3 3 4 4 4 4 5 5 5 5 5 5 5 6 7 8 9 9 10 10 10 11 11 12 13 13 13 13 14
15 14 15 15 13 11 10 11 12 14 15 16 18 18 17 16 15 13 12 11 10 10 10 9 8 8 7 5 5 5 4 4 3 2 2 2 2 3 3 3 3 3 3 4 4 4 5 5 6 7 8 8 8 7 8 9 10 10 10 10 11 12 11
17 16 16 15 14 14 13 12 13 15 15 16 18 19 18 16 15 14 12 11 10 9 10 10 9 8 7 6 6 5 5 5 5 4 4 2 1 1 1 2 2 2 3 3 4 4 4 3 3 4 5 7 7 6 5 7 8 9 10 11 13 13 12
16 15 15 14 15 17 15 15 15 14 15 17 18 19 18 16 16 15 12 10 8 8 9 10 9 8 8 7 7 7 7 7 6 5 4 2 1 1 0 1 2 2 2 3 3 3 3 3 2 3 4 4 6 6 6 8 9 11 11 12 13 13 11
18 17 15 14 16 17 16 15 15 15 16 18 18 18 17 17 17 16 13 10 8 7 8 8 7 7 8 9 9 9 8 7 6 5 3 2 2 1 0 1 2 3 3 4 4 3 3 4 3 1 1 2 4 4 6 9 10 11 12 13 12 10 7
21 17 16 16 17 18 17 16 16 16 16 17 17 17 17 18 18 17 15 13 11 9 9 9 8 9 9 10 10 9 8 6 5 3 2 2 2 1 1 2 3 4 4 4 3 2 2 3 2 1 0 2 4 4 6 9 10 11 12 13 12 9 6
23 20 19 19 19 18 17 17 17 17 17 17 16 17 18 19 20 19 18 17 14 12 11 10 10 11 11 10 9 8 8 7 4 3 3 2 1 0 0 1 2 2 2 2 1 1 2 3 3 3 3 4 5 5 6 9 11 11 11 13 13 11 8
25 24 20 19 19 19 17 18 18 17 17 17 16 17 18 18 19 20 19 17 15 14 13 12 12 11 10 9 9 8 8 7 5 3 3 2 2 3 2 1 2 1 1 2 2 3 4 5 5 5 6 6 7 7 7 9 11 12 12 12 13 11 8
24 24 22 19 20 21 19 19 18 17 17 17 16 17 17 17 17 18 17 16 14 13 13 12 12 11 10 10 9 8 7 6 5 4 3 2 2 2 3 3 3 3 4 5 4 5 6 6 5 6 6 7 8 8 8 7 9 10 11 11 11 10 10
20 23 24 23 23 23 20 19 18 17 17 16 15 16 16 16 15 15 15 14 13 13 12 12 12 12 11 10 9 9 8 6 5 5 3 2 1 1 2 3 4 5 5 3 4 6 4 4 6 7 7 7 7 7 7 8 9 10 11 11 11 10 13
21 23 25 25 24 22 20 18 18 17 17 16 15 15 15 14 14 13 14 14 12 12 12 12 12 11 10 9 8 7 6 4 4 5 4 2 2 3 2 1 1 1 0 3 7 7 3 2 4 4 4 5 6 5 4 7 10 11 11 12 12 12 14
23 25 25 24 22 20 20 19 18 18 17 16 15 15 14 14 13 13 13 12 11 12 12 11 11 10 8 7 6 6 5 4 3 3 2 1 3 5 5 5 5 6 7 8 9 8 6 6 7 7 5 5 9 11 9 10 13 14 14 14 14 14 14
26 25 23 24 22 20 21 20 19 19 18 17 16 16 15 15 14 13 12 10 10 11 11 10 10 9 7 6 6 5 5 4 3 3 3 1 3 6 7 8 9 10 9 9 8 7 8 8 9 10 9 10 13 14 13 14 15 15 15 15 13 12 11
25 25 23 23 23 21 21 21 20 19 19 18 17 16 16 15 14 12 11 11 11 12 11 10 9 7 5 5 5 5 5 4 2 3 6 5 3 4 5 7 8 7 6 6 6 6 6 6 6 7 8 9 11 11 10 11 12 11 11 11 10 9 9
14 20 23 25 24 23 19 18 19 19 17 17 17 16 15 14 13 11 10 10 10 11 11 9 8 6 5 5 6 5 5 4 3 2 4 5 4 4 5 6 7 7 6 6 6 6 5 4 4 5 5 7 8 8 8 9 9 9 9 9 8 8 9
Wind_Direction
194 196 193 193 196 198 198 199 197 200 202 197 192 192 194 196 193 190 196 200 202 206 203 202 208 210 209 209 210 214 214 213 213 209 207 208 208 209 210 210 210 210 213 219 222 217 215 218 219 218 225 237 245 241 232 226 226 227 228 228 224 223 228
194 197 198 197 195 196 197 194 194 200 203 201 199 196 196 200 199 197 199 201 204 208 205 205 210 209 208 209 210 214 217 216 214 212 212 213 212 212 213 212 210 213 215 216 224 225 219 220 222 220 225 234 240 245 242 236 234 231 231 232 226 223 227
200 201 203 198 192 193 192 188 192 200 199 197 199 199 199 204 208 208 207 204 206 209 207 208 212 210 208 209 211 215 218 219 218 215 212 213 213 211 213 216 214 214 217 217 226 231 222 219 221 222 225 227 229 238 244 243 242 238 233 232 231 229 231
202 200 208 197 186 190 189 186 195 201 197 195 197 198 196 198 207 210 203 200 204 208 209 210 212 211 209 210 214 216 218 221 222 220 216 212 212 211 211 217 218 216 217 219 226 231 224 221 222 224 226 226 225 231 241 245 243 240 236 233 233 234 234
192 195 213 203 180 185 189 187 190 194 197 200 199 197 195 193 197 198 193 196 205 211 215 214 212 212 213 214 216 218 218 221 223 223 221 217 219 219 213 213 218 217 215 217 222 226 230 230 228 227 228 227 226 228 237 244 242 237 238 236 233 232 236
178 190 205 198 178 179 189 190 189 193 200 202 196 194 199 199 196 194 194 199 210 217 221 218 212 212 216 217 217 219 220 223 224 224 224 223 223 223 218 215 220 220 216 216 220 225 233 232 226 229 233 230 228 229 232 238 237 234 238 243 241 237 239
167 193 204 195 180 176 187 192 188 193 200 202 198 195 202 202 197 195 195 200 211 219 221 218 214 213 217 220 220 221 223 225 227 226 224 224 225 224 221 218 221 223 220 219 220 225 232 230 225 229 234 230 228 228 229 234 237 235 234 241 249 249 246
148 184 201 189 174 172 184 185 182 188 195 200 195 189 194 202 200 199 198 202 209 218 223 222 218 214 214 218 219 222 225 225 227 227 222 219 221 224 223 219 220 223 223 222 222 223 226 228 230 230 228 230 230 226 225 231 237 237 234 236 242 246 245
123 155 172 162 164 172 182 182 180 182 187 198 196 189 194 200 200 200 201 206 212 218 224 224 216 212 211 212 217 223 223 219 222 226 221 215 216 222 223 220 219 221 225 229 230 228 226 228 235 236 232 235 238 232 226 227 230 232 234 237 238 241 245
114 159 179 171 182 194 189 185 188 186 185 196 198 194 201 201 196 200 204 210 218 221 222 218 211 209 208 207 211 217 214 211 216 219 215 214 216 221 224 222 220 219 221 228 231 230 229 231 238 240 239 243 246 241 235 232 231 230 230 235 240 243 246
109 184 205 186 190 197 188 185 194 196 193 196 196 195 202 204 200 205 210 214 222 224 220 215 210 207 206 202 201 205 207 212 220 217 211 214 218 222 227 224 220 220 220 224 232 234 236 242 247 247 245 247 252 250 245 240 238 236 234 236 243 246 246
117 237 218 177 169 175 174 182 194 195 191 191 193 190 192 200 203 207 210 213 220 223 218 213 208 205 203 198 194 194 199 213 223 220 211 212 219 225 227 222 219 222 223 225 232 239 244 247 248 248 246 244 249 255 255 251 246 244 242 241 244 247 247
149 264 225 157 161 167 161 166 173 174 176 178 186 190 195 205 207 207 208 210 217 221 216 210 207 203 198 192 190 188 189 206 219 220 212 213 221 227 229 228 226 224 222 223 230 240 247 246 241 243 246 245 247 252 255 257 256 252 249 247 245 245 247
170 271 238 152 162 169 159 157 155 160 168 174 184 194 199 204 202 203 207 209 214 219 213 204 199 193 189 200 207 196 193 206 216 224 223 216 218 223 230 238 236 228 227 233 240 245 248 248 244 244 246 248 252 253 252 257 259 255 254 253 250 248 247
164 252 236 160 163 163 160 162 156 159 166 170 182 190 194 200 199 201 207 208 211 215 208 198 196 197 207 219 212 196 196 207 212 223 230 211 205 213 225 236 233 228 232 237 241 247 251 253 252 248 248 249 251 252 252 256 261 261 260 260 260 258 254
167 201 216 213 184 159 156 159 153 155 159 162 171 176 181 188 188 194 199 197 200 205 209 217 214 210 212 209 201 199 205 208 207 221 232 215 206 216 227 231 226 221 226 231 238 247 252 254 255 254 254 253 251 252 255 260 264 265 265 267 270 270 263
174 166 177 236 205 152 148 150 145 149 152 152 158 161 165 171 169 174 182 184 192 200 208 218 212 201 198 192 195 206 211 208 206 222 233 222 214 220 222 220 217 217 224 235 243 246 248 252 258 262 262 262 261 260 262 266 269 268 270 272 273 272 268
176 154 150 226 210 148 142 143 141 145 145 145 151 153 157 160 158 161 171 177 186 191 193 197 191 188 188 184 189 197 203 208 211 216 221 218 214 214 214 213 217 226 235 241 241 242 248 254 261 267 269 273 275 273 272 273 273 271 271 272 272 271 270
165 153 142 205 219 152 141 142 140 142 142 142 144 146 151 156 157 163 168 169 173 176 178 181 182 181 179 179 186 191 194 199 203 201 205 210 209 208 212 217 223 230 235 237 238 241 249 254 260 268 273 275 274 276 279 277 273 269 269 271 274 275 274
117 136 133 179 230 165 143 143 140 139 139 139 142 146 149 151 154 154 154 156 160 162 167 174 175 172 171 177 182 184 182 180 185 191 194 198 202 205 213 222 227 232 236 240 243 246 252 259 264 268 270 270 271 271 272 274 274 274 273 274 277 280 278
112 134 130 163 256 199 147 144 140 138 137 137 144 151 149 147 147 145 146 152 151 145 151 164 164 158 162 169 168 168 170 168 172 180 181 191 202 208 219 231 236 240 243 246 247 248 256 264 265 266 267 267 270 268 267 273 277 275 275 278 282 286 286
131 140 134 155 256 239 153 146 141 140 140 139 143 145 142 141 142 141 142 147 143 136 141 153 156 152 156 156 153 159 166 167 170 176 179 191 203 210 223 238 245 248 250 251 250 249 255 260 260 262 265 267 270 270 271 278 280 275 275 278 280 282 285
132 139 143 155 180 192 158 149 143 142 141 138 137 137 138 141 139 137 140 144 144 140 140 147 149 145 149 153 150 155 165 167 171 178 183 190 198 207 222 235 245 254 258 257 254 250 254 261 261 264 269 272 273 274 277 281 284 282 279 277 277 280 284
135 145 150 152 154 159 165 157 146 143 140 136 136 136 140 143 140 139 143 145 145 142 139 144 146 142 147 154 144 145 156 163 171 182 184 183 189 205 227 245 253 262 267 265 265 269 273 276 276 275 279 284 286 286 288 289 288 284 281 279 281 283 286
143 146 144 149 153 152 163 165 152 145 140 138 139 140 141 142 140 141 145 144 146 145 139 139 142 138 138 139 135 137 140 140 146 150 145 149 169 197 232 253 254 256 269 276 280 284 284 282 277 279 287 297 301 302 301 301 295 286 283 287 288 288 291
155 147 140 150 151 144 156 168 157 148 145 144 144 143 143 142 138 140 143 142 145 143 131 129 135 136 133 132 131 125 116 113 118 123 128 136 153 175 219 267 278 274 274 278 283 288 292 289 283 294 311 318 320 326 323 312 302 295 293 295 295 296 301
150 139 141 153 149 142 155 165 158 152 150 145 139 138 141 140 135 137 142 141 138 130 119 122 130 133 129 127 125 121 117 114 110 109 114 119 122 118 48 304 296 294 280 282 297 311 318 324 326 347 358 338 322 321 310 299 300 303 306 308 305 301 301
144 142 145 145 141 145 157 164 160 155 149 141 137 138 141 139 134 135 138 137 132 120 111 110 115 120 120 120 122 121 119 117 114 115 116 108 107 109 311 273 279 291 291 292 300 310 317 321 322 342 353 309 305 305 293 292 303 314 321 327 324 314 308
145 150 149 142 145 156 163 163 160 154 147 143 142 142 143 139 135 136 137 139 137 125 113 108 111 118 121 121 124 125 122 124 127 123 116 119 144 187 266 306 299 288 283 288 298 305 315 322 319 311 276 293 304 304 291 292 305 318 329 336 337 329 323
146 149 152 151 154 160 163 162 159 153 148 147 146 145 145 141 138 139 140 142 141 136 132 129 128 130 131 127 124 118 109 103 96 91 111 138 164 140 119 307 297 270 252 267 283 305 321 328 325 323 328 323 315 310 300 300 309 319 329 338 343 339 329
147 146 152 158 156 157 163 162 157 153 150 149 147 145 146 145 143 142 142 142 143 140 139 137 133 131 128 117 106 98 93 94 96 102 118 108 48 48 59 3 319 321 352 356 7 8 358 352 336 321 322 321 314 310 310 310 313 318 326 334 340 343 335
153 148 149 157 158 160 163 159 155 153 149 145 144 144 145 147 146 143 140 140 140 139 138 139 136 131 127 119 114 115 121 124 128 130 126 97 66 47 33 17 340 333 4 13 356 340 339 337 324 315 313 303 292 298 314 319 312 312 317 321 326 332 333
165 153 149 158 164 164 161 156 153 151 146 143 142 141 142 144 145 143 140 137 138 143 145 143 137 134 135 135 134 137 141 144 149 158 160 137 147 272 331 351 328 335 8 6 296 289 307 326 326 325 327 318 301 305 326 327 311 305 308 311 315 318 321
167 158 154 159 162 160 156 154 152 148 143 142 142 140 140 142 144 140 134 136 147 153 147 139 135 136 140 143 144 145 150 161 177 184 180 161 184 224 228 187 254 313 181 233 263 275 274 312 319 317 339 345 318 299 309 311 301 299 303 304 302 300 302
166 162 158 156 154 154 155 153 149 145 141 139 140 141 140 139 139 137 137 146 155 148 134 128 132 138 144 145 144 145 147 157 187 208 212 290 273 248 223 213 239 251 243 249 273 284 266 255 264 262 262 286 284 277 281 289 289 290 292 294 297 299 302
167 160 153 150 151 153 153 149 144 140 139 138 138 139 138 137 137 138 143 148 145 136 131 133 139 147 151 147 150 166 177 174 183 204 210 282 296 266 252 256 263 266 266 272 284 292 285 275 270 270 274 276 277 283 291 292 291 293 294 295 302 309 311
157 151 146 147 149 146 144 144 142 138 135 135 135 133 131 133 135 139 145 147 145 144 144 145 152 159 160 165 176 185 186 175 159 200 218 225 237 258 279 290 285 280 284 290 296 306 308 297 284 285 290 287 287 297 304 301 301 305 306 309 313 314 316
132 145 148 147 142 135 130 132 136 134 129 128 128 125 124 125 127 130 136 139 142 145 142 142 151 155 158 190 200 180 168 170 156 184 231 229 224 243 276 295 299 303 310 313 322 333 334 323 306 303 309 309 311 319 322 320 322 322 320 324 324 319 320